Spokane Fairchild, WA

9:15 AM PST on November 22, 2017 (GMT -0800)
Fairchild Air Force Base

Weather History for KSKA - May, 2014

Change the Weather History Date:

Monday, May 5, 2014

  Actual Average Record
Temperature  
Mean Temperature 49 °F -  
Max Temperature 59 °F 59 °F 77 °F (1998)
Min Temperature 39 °F 37 °F 28 °F (1999)
Degree Days  
Heating Degree Days 16    
Moisture  
Dew Point 37 °F    
Average Humidity 66    
Maximum Humidity 95    
Minimum Humidity 36    
Precipitation  
Precipitation 0.00 in - - ()
Sea Level Pressure  
Sea Level Pressure 29.87 in    
Wind  
Wind Speed 12 mph (SW)    
Max Wind Speed 21 mph    
Max Gust Speed 26 mph    
Visibility 10 miles    
Events Rain    
Averages and records for this station are not official NWS values.
T = Trace of Precipitation, MM = Missing Value Source: NWS Daily Summary

Daily Weather History Graph

Daily Weather History Graph

Search for Another Location

Airport or City:

Trip Planner

Search our weather history database for the weather conditions in past years. The results will help you decide how hot, cold, wet, or windy it might be!

Date:

Astronomy

May. 05, 2014 Rise Set
Actual Time 5:27 AM PDT 8:08 PM PDT
Civil Twilight 4:52 AM PDT 8:43 PM PDT
Nautical Twilight 4:07 AM PDT 9:28 PM PDT
Astronomical Twilight 3:15 AM PDT 10:20 PM PDT
Moon 10:52 AM PDT (5/5) 12:54 AM PDT (5/5)
Length of Visible Light 15h 51m
Length of Day
14h 41m
Waxing Crescent, 37% of the Moon is Illuminated
May 5
Waxing Crescent
May 6
First Quarter
May 14
Full
May 21
Last Quarter
May 28
New

Hourly Weather History & Observations

Time (PDT) Temp. Windchill Dew Point Humidity Pressure Visibility Wind Dir Wind Speed Gust Speed Precip Events Conditions
12:58 AM 45.9 °F 40.0 °F 40.1 °F 80% 29.84 in 10.0 mi South 12.7 mph - N/A   Clear
1:58 AM 44.6 °F 39.2 °F 40.1 °F 84% 29.84 in 10.0 mi South 10.4 mph - N/A   Partly Cloudy
2:12 AM 44.6 °F 38.1 °F 41.0 °F 87% 29.83 in 10.0 mi South 13.8 mph - N/A   Partly Cloudy
2:34 AM 44.6 °F 38.4 °F 41.0 °F 87% 29.83 in 10.0 mi South 12.7 mph - N/A   Partly Cloudy
2:58 AM 43.7 °F 38.1 °F 41.2 °F 91% 29.84 in 10.0 mi South 10.4 mph - 0.00 in   Clear
3:58 AM 42.1 °F 35.2 °F 39.6 °F 91% 29.85 in 10.0 mi South 12.7 mph - N/A   Scattered Clouds
4:58 AM 40.3 °F 34.4 °F 38.5 °F 93% 29.87 in 10.0 mi South 9.2 mph - N/A   Clear
5:09 AM 41.0 °F 35.2 °F 39.2 °F 93% 29.84 in 10.0 mi South 9.2 mph - N/A   Mostly Cloudy
5:11 AM 41.0 °F 34.7 °F 39.2 °F 93% 29.84 in 10.0 mi South 10.4 mph - N/A   Mostly Cloudy
5:28 AM 39.2 °F 32.5 °F 37.4 °F 93% 29.85 in 10.0 mi South 10.4 mph - N/A   Scattered Clouds
5:37 AM 39.2 °F 32.0 °F 37.4 °F 93% 29.85 in 10.0 mi South 11.5 mph - N/A   Scattered Clouds
5:40 AM 39.2 °F 32.5 °F 37.4 °F 93% 29.85 in 10.0 mi South 10.4 mph - N/A   Scattered Clouds
5:45 AM 39.2 °F 32.5 °F 37.4 °F 93% 29.86 in 10.0 mi South 10.4 mph - N/A   Scattered Clouds
5:58 AM 39.9 °F 33.9 °F 38.5 °F 95% 29.88 in 10.0 mi South 9.2 mph - 0.00 in   Scattered Clouds
5:59 AM 41.0 °F 34.7 °F 39.2 °F 93% 29.86 in 10.0 mi South 10.4 mph - N/A   Scattered Clouds
6:00 AM 41.0 °F 34.7 °F 39.2 °F 93% 29.86 in 10.0 mi South 10.4 mph - N/A   Scattered Clouds
6:03 AM 41.0 °F 34.7 °F 39.2 °F 93% 29.86 in 10.0 mi South 10.4 mph - N/A   Mostly Cloudy
6:58 AM 41.7 °F 34.8 °F 38.8 °F 89% 29.89 in 10.0 mi South 12.7 mph - 0.00 in   Overcast
7:58 AM 44.1 °F 37.4 °F 39.7 °F 85% 29.90 in 10.0 mi SSW 13.8 mph - N/A   Overcast
8:58 AM 48.2 °F - 39.7 °F 73% 29.90 in 10.0 mi SSW 13.8 mph - N/A   Partly Cloudy
9:58 AM 49.5 °F - 39.6 °F 69% 29.90 in 10.0 mi SSW 16.1 mph 24.2 mph N/A   Mostly Cloudy
10:18 AM 51.8 °F - 39.2 °F 62% 29.89 in 10.0 mi SSW 15.0 mph 23.0 mph N/A   Overcast
10:23 AM 53.6 °F - 39.2 °F 58% 29.89 in 10.0 mi SSW 15.0 mph - N/A   Overcast
10:28 AM 53.6 °F - 39.2 °F 58% 29.89 in 10.0 mi South 16.1 mph - N/A   Overcast
10:58 AM 54.0 °F - 36.9 °F 52% 29.89 in 10.0 mi SW 17.3 mph 25.3 mph N/A   Mostly Cloudy
11:36 AM 57.2 °F - 35.6 °F 44% 29.87 in 10.0 mi SW 16.1 mph 24.2 mph N/A   Mostly Cloudy
11:58 AM 55.9 °F - 35.6 °F 46% 29.88 in 10.0 mi SW 17.3 mph 24.2 mph N/A   Overcast
12:35 PM 55.4 °F - 35.6 °F 47% 29.86 in 10.0 mi SW 20.7 mph 25.3 mph N/A   Overcast
12:58 PM 58.5 °F - 34.5 °F 41% 29.87 in 10.0 mi SW 17.3 mph 24.2 mph N/A   Overcast
1:58 PM 58.8 °F - 32.7 °F 37% 29.86 in 10.0 mi SW 17.3 mph 23.0 mph N/A   Mostly Cloudy
2:15 PM 57.2 °F - 33.8 °F 41% 29.85 in 10.0 mi SSW 19.6 mph 24.2 mph N/A Rain Light Rain
2:18 PM 57.2 °F - 35.6 °F 44% 29.85 in 10.0 mi WSW 18.4 mph 24.2 mph N/A Rain Light Rain
2:26 PM 55.4 °F - 35.6 °F 47% 29.85 in 5.0 mi SSW 16.1 mph 26.5 mph N/A Rain Light Rain
2:34 PM 57.2 °F - 33.8 °F 41% 29.85 in 10.0 mi SW 13.8 mph - N/A   Overcast
2:35 PM 57.2 °F - 33.8 °F 41% 29.85 in 10.0 mi WSW 15.0 mph - N/A   Overcast
2:58 PM 57.2 °F - 32.4 °F 39% 29.87 in 10.0 mi SW 15.0 mph 20.7 mph 0.00 in   Overcast
3:02 PM 59.0 °F - 32.0 °F 36% 29.86 in 10.0 mi WSW 12.7 mph 20.7 mph N/A   Overcast
3:04 PM 57.2 °F - 35.6 °F 44% 29.85 in 10.0 mi WNW 15.0 mph 20.7 mph N/A   Overcast
3:40 PM 55.4 °F - 37.4 °F 51% 29.85 in 10.0 mi NNW 16.1 mph - N/A   Light Drizzle
3:50 PM 55.4 °F - 37.4 °F 51% 29.86 in 10.0 mi NW 13.8 mph - N/A   Partly Cloudy
3:58 PM 55.9 °F - 37.0 °F 49% 29.88 in 10.0 mi North 4.6 mph - 0.00 in   Clear
4:18 PM 55.4 °F - 35.6 °F 47% 29.86 in 10.0 mi SW 10.4 mph - N/A Rain Light Rain
4:30 PM 55.4 °F - 35.6 °F 47% 29.86 in 10.0 mi SSE 4.6 mph - N/A   Mostly Cloudy
4:58 PM 55.0 °F - 34.2 °F 45% 29.89 in 10.0 mi Calm Calm - 0.00 in   Mostly Cloudy
5:58 PM 55.6 °F - 36.0 °F 48% 29.88 in 10.0 mi Variable 1.2 mph - N/A   Scattered Clouds
6:49 PM 55.4 °F - 37.4 °F 51% 29.86 in 10.0 mi West 5.8 mph - N/A Rain Light Rain
6:58 PM 55.2 °F - 37.2 °F 51% 29.88 in 10.0 mi West 5.8 mph - 0.00 in Rain Light Rain
6:59 PM 55.4 °F - 37.4 °F 51% 29.86 in 10.0 mi WNW 4.6 mph - N/A   Mostly Cloudy
7:58 PM 54.9 °F - 35.1 °F 47% 29.89 in 10.0 mi ESE 6.9 mph - 0.00 in   Overcast
8:58 PM 50.2 °F - 39.9 °F 68% 29.90 in 10.0 mi East 3.5 mph - N/A   Overcast
9:58 PM 46.9 °F - 35.6 °F 65% 29.91 in 10.0 mi NW 4.6 mph - N/A   Clear
10:58 PM 42.3 °F 39.4 °F 35.8 °F 78% 29.91 in 10.0 mi West 4.6 mph - 0.00 in   Clear
10:59 PM 42.8 °F 40.1 °F 35.6 °F 76% 29.89 in 10.0 mi West 4.6 mph - N/A   Partly Cloudy
11:05 PM 42.8 °F 39.3 °F 35.6 °F 76% 29.89 in 10.0 mi West 5.8 mph - N/A   Scattered Clouds
11:58 PM 41.2 °F 38.2 °F 35.1 °F 79% 29.91 in 10.0 mi West 4.6 mph - 0.00 in   Mostly Cloudy
11:59 PM 41.0 °F 38.0 °F 33.8 °F 76% 29.89 in 10.0 mi West 4.6 mph - N/A   Scattered Clouds